User: anonymous   Login
Location: Unspecified
(0.0000°N, 0.0000°E)
Time: 07:44:50
(UTC+01:00)
Language:

Meteor 2-8 Rocket - Orbit

View from above orbital plane
View from above orbital plane
View from above satellite
View from above satellite

Ground track
Ground track

The orbit data is extracted from the following two-line orbital elements,

1 13114U 82025B   16040.89438775  .00000033  00000-0  16089-4 0  9993
2 13114  82.5369 235.2740 0015825  95.4819  19.4898 13.84650892712145
Epoch (UTC): 09 February 2016 21:27:55
Eccentricity: 0.0015825
inclination: 82.5369°
perigee height: 936 km
apogee height: 959 km
right ascension of ascending node: 235.2740°
argument of perigee: 95.4819°
revolutions per day: 13.84650892
mean anomaly at epoch: 19.4898°
orbit number at epoch: 71214

The dashed part of the orbit path shows where the satellite is in the earth's shadow,  

DLR